When you browse on this site, cookies collect data to enhance your experience and personalize the content and advertising you see.
Visit our Privacy Policy to learn more. By continuing to use the site, you agree to this use of cookies and data.
  • In Romania
  • List of Countries
  • For 7 days
  • Water Temperature
  • Satellite Maps
  • Weather Map
  • Weather Widgets
  • user-avatar
    Login

    Hourly Weather Neuquén

    Today, 18 January, Friday

    Time Temperature Precipitation Wind Pressure Humidity
    00:00 +23°C° 0 mm 4 mps 739 mmHg 20%
    01:00 +22°C° 0 mm 4 mps 739 mmHg 21%
    02:00 +21°C° 0 mm 4 mps 738 mmHg 22%
    03:00 +21°C° 0 mm 3 mps 738 mmHg 23%
    04:00 +20°C° 0 mm 3 mps 738 mmHg 24%
    05:00 +21°C° 0 mm 3 mps 738 mmHg 24%
    06:00 +22°C° 0 mm 4 mps 738 mmHg 23%
    07:00 +23°C° 0 mm 4 mps 738 mmHg 22%
    08:00 +26°C° 0 mm 5 mps 738 mmHg 20%
    09:00 +27°C° 0 mm 5 mps 738 mmHg 17%
    10:00 +29°C° 0 mm 6 mps 738 mmHg 15%
    11:00 +30°C° 0 mm 6 mps 738 mmHg 13%
    12:00 +32°C° 0 mm 6 mps 737 mmHg 12%
    13:00 +33°C° 0 mm 7 mps 737 mmHg 10%
    14:00 +33°C° 0 mm 7 mps 736 mmHg 10%
    15:00 +33°C° 0 mm 7 mps 736 mmHg 9%
    16:00 +34°C° 0 mm 7 mps 735 mmHg 8%
    17:00 +33°C° 0 mm 6 mps 735 mmHg 9%
    18:00 +32°C° 0 mm 6 mps 735 mmHg 10%
    19:00 +30°C° 0 mm 5 mps 735 mmHg 11%
    20:00 +29°C° 0 mm 5 mps 735 mmHg 12%
    21:00 +28°C° 0 mm 5 mps 735 mmHg 13%
    22:00 +27°C° 0 mm 5 mps 736 mmHg 15%
    23:00 +26°C° 0 mm 5 mps 735 mmHg 16%

    Tomorrow, 19 January, Saturday

    Time Temperature Precipitation Wind Pressure Humidity
    00:00 +26°C° 0 mm 5 mps 735 mmHg 17%
    01:00 +25°C° 0 mm 5 mps 735 mmHg 19%
    02:00 +23°C° 0 mm 5 mps 735 mmHg 23%
    03:00 +23°C° 0 mm 5 mps 734 mmHg 27%
    04:00 +22°C° 0 mm 5 mps 734 mmHg 31%
    05:00 +23°C° 0 mm 6 mps 734 mmHg 30%
    06:00 +24°C° 0 mm 7 mps 734 mmHg 29%
    07:00 +26°C° 0 mm 7 mps 735 mmHg 28%
    08:00 +28°C° 0 mm 8 mps 734 mmHg 26%
    09:00 +31°C° 0 mm 8 mps 734 mmHg 23%
    10:00 +32°C° 0 mm 8 mps 734 mmHg 21%
    11:00 +34°C° 0 mm 8 mps 733 mmHg 19%
    12:00 +35°C° 0 mm 8 mps 732 mmHg 18%
    13:00 +37°C° 0 mm 8 mps 732 mmHg 16%
    14:00 +38°C° 0 mm 7 mps 731 mmHg 15%
    15:00 +38°C° 0 mm 6 mps 730 mmHg 14%
    16:00 +39°C° 0 mm 5 mps 730 mmHg 13%
    17:00 +37°C° 0 mm 5 mps 730 mmHg 14%
    18:00 +36°C° 0 mm 4 mps 729 mmHg 14%
    19:00 +36°C° 0 mm 4 mps 729 mmHg 15%
    20:00 +35°C° 0 mm 4 mps 729 mmHg 17%
    21:00 +34°C° 0 mm 5 mps 730 mmHg 18%
    22:00 +33°C° 0 mm 5 mps 730 mmHg 20%
    23:00 +32°C° 0 mm 6 mps 730 mmHg 25%

    Day after tomorrow, 20 January, Sunday

    Time Temperature Precipitation Wind Pressure Humidity
    00:00 +30°C° 0 mm 7 mps 729 mmHg 29%
    01:00 +29°C° 0 mm 8 mps 729 mmHg 34%
    02:00 +29°C° 0 mm 6 mps 729 mmHg 34%
    03:00 +28°C° 0 mm 5 mps 728 mmHg 33%
    04:00 +27°C° 0 mm 3 mps 728 mmHg 33%
    05:00 +28°C° 0 mm 4 mps 729 mmHg 28%
    06:00 +30°C° 0 mm 5 mps 729 mmHg 23%
    07:00 +32°C° 0 mm 6 mps 729 mmHg 18%
    08:00 +33°C° 0 mm 6 mps 729 mmHg 17%
    09:00 +34°C° 0 mm 7 mps 729 mmHg 16%
    10:00 +36°C° 0 mm 7 mps 728 mmHg 15%
    11:00 +38°C° 0 mm 7 mps 728 mmHg 13%
    12:00 +39°C° 0 mm 7 mps 728 mmHg 11%
    13:00 +40°C° 0 mm 8 mps 727 mmHg 9%
    14:00 +40°C° 0 mm 9 mps 727 mmHg 9%
    15:00 +40°C° 0 mm 10 mps 727 mmHg 9%
    16:00 +41°C° 0 mm 12 mps 727 mmHg 9%
    17:00 +38°C° 0 mm 12 mps 728 mmHg 12%
    18:00 +36°C° 0 mm 12 mps 728 mmHg 15%
    19:00 +33°C° 0 mm 12 mps 729 mmHg 17%
    20:00 +31°C° 0 mm 12 mps 730 mmHg 17%
    21:00 +29°C° 0 mm 12 mps 730 mmHg 17%
    22:00 +27°C° 0 mm 12 mps 731 mmHg 17%
    23:00 +26°C° 0 mm 11 mps 731 mmHg 21%

    21 January, Monday

    Time Temperature Precipitation Wind Pressure Humidity
    00:00 +24°C° 0 mm 10 mps 731 mmHg 25%
    01:00 +23°C° 0 mm 10 mps 731 mmHg 30%
    02:00 +22°C° 0 mm 9 mps 731 mmHg 32%
    03:00 +21°C° 0 mm 9 mps 732 mmHg 34%
    04:00 +20°C° 0 mm 8 mps 732 mmHg 35%
    05:00 +21°C° 0 mm 7 mps 732 mmHg 31%
    06:00 +22°C° 0 mm 6 mps 733 mmHg 27%
    07:00 +22°C° 0 mm 5 mps 733 mmHg 24%
    08:00 +25°C° 0 mm 4 mps 733 mmHg 20%
    09:00 +26°C° 0 mm 2 mps 733 mmHg 16%
    10:00 +27°C° 0 mm 1 mps 732 mmHg 12%
    11:00 +28°C° 0 mm 2 mps 731 mmHg 11%
    12:00 +30°C° 0 mm 3 mps 730 mmHg 10%
    13:00 +32°C° 0 mm 4 mps 729 mmHg 9%
    14:00 +33°C° 0 mm 3 mps 729 mmHg 10%
    15:00 +34°C° 0 mm 3 mps 728 mmHg 11%
    16:00 +35°C° 0 mm 3 mps 727 mmHg 12%
    17:00 +34°C° 0 mm 2 mps 727 mmHg 13%
    18:00 +34°C° 0 mm 2 mps 727 mmHg 14%
    19:00 +34°C° 0 mm 2 mps 727 mmHg 15%
    20:00 +32°C° 0 mm 4 mps 728 mmHg 14%
    21:00 +30°C° 0 mm 7 mps 728 mmHg 12%
    22:00 +29°C° 0 mm 10 mps 728 mmHg 11%
    23:00 +27°C° 0 mm 10 mps 728 mmHg 13%

    22 January, Tuesday

    Time Temperature Precipitation Wind Pressure Humidity
    00:00 +26°C° 0 mm 10 mps 728 mmHg 14%
    01:00 +23°C° 0 mm 10 mps 728 mmHg 16%
    02:00 +22°C° 0 mm 11 mps 728 mmHg 16%
    03:00 +22°C° 0 mm 11 mps 728 mmHg 16%
    04:00 +21°C° 0 mm 11 mps 728 mmHg 16%
    05:00 +21°C° 0 mm 11 mps 729 mmHg 16%
    06:00 +21°C° 0 mm 12 mps 730 mmHg 17%
    07:00 +22°C° 0 mm 12 mps 731 mmHg 17%
    08:00 +23°C° 0 mm 11 mps 731 mmHg 18%
    09:00 +24°C° 0 mm 11 mps 731 mmHg 19%
    10:00 +26°C° 0 mm 11 mps 731 mmHg 20%
    11:00 +27°C° 0 mm 10 mps 730 mmHg 18%
    12:00 +28°C° 0 mm 9 mps 730 mmHg 16%
    13:00 +31°C° 0 mm 8 mps 730 mmHg 15%
    14:00 +32°C° 0 mm 8 mps 729 mmHg 14%
    15:00 +33°C° 0 mm 9 mps 729 mmHg 13%
    16:00 +33°C° 0 mm 9 mps 729 mmHg 12%
    17:00 +32°C° 0 mm 9 mps 729 mmHg 13%
    18:00 +29°C° 0 mm 10 mps 730 mmHg 14%
    19:00 +27°C° 0 mm 10 mps 730 mmHg 16%
    20:00 +26°C° 0 mm 10 mps 731 mmHg 18%
    21:00 +24°C° 0 mm 10 mps 731 mmHg 20%
    22:00 +23°C° 0 mm 9 mps 732 mmHg 22%
    23:00 +22°C° 0 mm 9 mps 732 mmHg 24%

    23 January, Wednesday

    Time Temperature Precipitation Wind Pressure Humidity
    00:00 +21°C° 0 mm 9 mps 732 mmHg 26%
    01:00 +19°C° 0 mm 9 mps 732 mmHg 28%
    02:00 +20°C° 0 mm 8 mps 732 mmHg 28%
    03:00 +18°C° 0 mm 7 mps 732 mmHg 29%
    04:00 +19°C° 0 mm 6 mps 732 mmHg 29%
    05:00 +20°C° 0 mm 5 mps 732 mmHg 28%
    06:00 +21°C° 0 mm 4 mps 732 mmHg 27%
    07:00 +22°C° 0 mm 3 mps 733 mmHg 26%
    08:00 +24°C° 0 mm 3 mps 732 mmHg 23%
    09:00 +25°C° 0 mm 2 mps 732 mmHg 20%
    10:00 +27°C° 0 mm 1 mps 732 mmHg 16%
    11:00 +28°C° 0 mm 2 mps 731 mmHg 14%
    12:00 +30°C° 0 mm 3 mps 730 mmHg 12%
    13:00 +31°C° 0 mm 3 mps 730 mmHg 10%
    14:00 +33°C° 0 mm 3 mps 729 mmHg 10%
    15:00 +34°C° 0 mm 3 mps 728 mmHg 10%
    16:00 +34°C° 0 mm 2 mps 727 mmHg 10%
    17:00 +34°C° 0 mm 2 mps 727 mmHg 10%
    18:00 +32°C° 0 mm 2 mps 727 mmHg 11%
    19:00 +32°C° 0 mm 2 mps 727 mmHg 11%
    20:00 +31°C° 0 mm 3 mps 727 mmHg 11%
    21:00 +30°C° 0 mm 5 mps 727 mmHg 11%
    22:00 +29°C° 0 mm 7 mps 727 mmHg 11%
    23:00 +28°C° 0 mm 7 mps 727 mmHg 12%
    Show more